Date String (YYYY-MM-DD hh:mm:ss) UTC,Instrument flags,absolute air pressure of the measurement (hPa),sample flow rate (lpm),inlet stack bypass flow (lpm),air temperature of the measurement (°C),ambient temperature measured by the external sensor (°C),aerosol sample conditioner tube jacket temperature (°C),OPC LED temperature (°C),internal box temperature (°C),relative humidity of the measurement (%),span deviation,mass concentration of particles derived from Lorenz-Mie calculation of OPC scattering (μg/m³),mass concentration of particles derived from Lorenz-Mie calculation of OPC scattering (μg/m³),mass concentration of particles derived from Lorenz-Mie calculation of OPC scattering (μg/m³)
DateTimeUTC,F1_M11,P_M11,Q1_M11,Q2_M11,T1_M11,T2_M11,T3_M11,T4_M11,T5_M11,U1_M11,ZSPAN_M11,X0_M11,X2_M11,X1_M11
2024-05-18 21:00:00,SystemResetWarning,0827.7,5.00,000.00,024.0,021.9,000.0,032.4,025.1,028.1,0000.0,0018.06,0005.19,0003.66
2024-05-18 21:01:00,SystemResetWarning,0827.7,5.01,000.00,024.0,022.2,000.0,032.4,025.2,028.3,0000.0,0018.12,0005.17,0003.65
2024-05-18 21:02:00,SystemResetWarning,0827.7,4.98,000.00,024.0,022.5,000.0,032.3,025.4,028.3,0000.0,0018.04,0005.17,0003.65
2024-05-18 21:03:00,SystemResetWarning,0827.7,5.00,000.00,024.0,022.8,000.0,032.3,025.6,028.4,0000.0,0017.84,0005.17,0003.64
2024-05-18 21:04:00,SystemResetWarning,0827.7,5.01,000.00,024.1,023.0,000.0,032.3,025.8,027.6,0000.0,0017.48,0005.20,0003.64
2024-05-18 21:05:00,SystemResetWarning,0827.7,5.01,000.00,024.1,023.3,000.0,032.3,025.9,027.8,0000.0,0018.22,0005.25,0003.65
2024-05-18 21:06:00,SystemResetWarning,0827.7,4.99,000.00,024.2,023.5,000.0,032.3,026.1,027.4,0000.0,0018.19,0005.26,0003.66
2024-05-18 21:07:00,SystemResetWarning,0827.7,4.99,000.00,024.3,023.7,000.0,032.3,026.2,027.4,0000.0,0017.62,0005.26,0003.66
2024-05-18 21:08:00,SystemResetWarning,0827.7,4.99,000.00,024.4,023.9,000.0,032.3,026.3,027.8,0000.0,0017.06,0005.29,0003.67
2024-05-18 21:09:00,SystemResetWarning,0827.7,5.00,000.00,024.4,023.8,000.0,032.4,026.2,028.2,0000.0,0017.55,0005.35,0003.67
2024-05-18 21:10:00,SystemResetWarning,0827.7,5.00,000.00,024.2,022.2,000.0,032.5,025.3,028.4,0000.0,0018.01,0005.37,0003.67
2024-05-18 21:11:00,SystemResetWarning,0827.5,5.00,000.00,023.8,021.0,000.0,032.5,024.6,029.4,0000.0,0018.17,0005.38,0003.67
2024-05-18 21:12:00,SystemResetWarning,0827.5,5.02,000.00,023.7,021.3,000.0,032.4,024.7,029.1,0000.0,0019.14,0005.43,0003.67
2024-05-18 21:13:00,SystemResetWarning,0827.5,4.98,000.00,023.7,021.7,000.0,032.3,024.9,029.7,0000.0,0020.05,0005.44,0003.68
2024-05-18 21:14:00,SystemResetWarning,0827.6,5.00,000.00,023.7,022.1,000.0,032.2,025.2,028.8,0000.0,0020.20,0005.45,0003.69
2024-05-18 21:15:00,SystemResetWarning,0827.6,5.01,000.00,023.8,022.5,000.0,032.2,025.4,028.7,0000.0,0019.16,0005.47,0003.72
2024-05-18 21:16:00,SystemResetWarning,0827.4,5.02,000.00,023.9,022.8,000.0,032.1,025.6,028.8,0000.0,0019.46,0005.50,0003.74
2024-05-18 21:17:00,SystemResetWarning,0827.6,5.00,000.00,023.9,023.1,000.0,032.1,025.7,029.0,0000.0,0019.77,0005.51,0003.76
2024-05-18 21:18:00,SystemResetWarning,0827.4,4.99,000.00,024.0,023.3,000.0,032.1,025.9,029.0,0000.0,0019.74,0005.48,0003.77
2024-05-18 21:19:00,SystemResetWarning,0827.4,5.00,000.00,024.1,023.5,000.0,032.2,026.0,028.7,0000.0,0019.80,0005.45,0003.77
2024-05-18 21:20:00,SystemResetWarning,0827.4,5.00,000.00,024.2,023.7,000.0,032.2,026.1,028.9,0000.0,0019.78,0005.42,0003.78
2024-05-18 21:21:00,SystemResetWarning,0827.4,5.00,000.00,024.3,023.9,000.0,032.2,026.2,028.9,0000.0,0019.73,0005.43,0003.80
2024-05-18 21:22:00,SystemResetWarning,0827.4,4.99,000.00,024.3,023.5,000.0,032.3,026.0,028.6,0000.0,0020.39,0005.44,0003.82
2024-05-18 21:23:00,SystemResetWarning,0827.4,5.01,000.00,024.0,021.7,000.0,032.4,025.0,028.8,0000.0,0020.45,0005.43,0003.83
2024-05-18 21:24:00,SystemResetWarning,0827.3,5.00,000.00,023.7,020.9,000.0,032.4,024.5,029.3,0000.0,0019.61,0005.45,0003.83
2024-05-18 21:25:00,SystemResetWarning,0827.3,5.01,000.00,023.6,021.3,000.0,032.3,024.7,029.8,0000.0,0019.20,0005.46,0003.84
2024-05-18 21:26:00,SystemResetWarning,0827.4,4.99,000.00,023.6,021.7,000.0,032.2,024.9,029.8,0000.0,0019.51,0005.51,0003.83
2024-05-18 21:27:00,SystemResetWarning,0827.4,5.00,000.00,023.7,022.1,000.0,032.1,025.1,029.1,0000.0,0019.18,0005.49,0003.82
2024-05-18 21:28:00,SystemResetWarning,0827.4,5.01,000.00,023.7,022.4,000.0,032.1,025.3,028.9,0000.0,0019.20,0005.43,0003.80
2024-05-18 21:29:00,SystemResetWarning,0827.4,5.00,000.00,023.8,022.8,000.0,032.0,025.5,029.1,0000.0,0019.93,0005.45,0003.80
2024-05-18 21:30:00,SystemResetWarning,0827.4,5.00,000.00,023.9,023.1,000.0,032.0,025.6,029.2,0000.0,0020.14,0005.45,0003.80
2024-05-18 21:31:00,SystemResetWarning,0827.4,5.00,000.00,024.0,023.3,000.0,032.1,025.8,029.3,0000.0,0020.32,0005.47,0003.79
2024-05-18 21:32:00,SystemResetWarning,0827.4,5.00,000.00,024.0,023.5,000.0,032.1,026.0,028.5,0000.0,0020.82,0005.47,0003.79
2024-05-18 21:33:00,SystemResetWarning,0827.4,5.00,000.00,024.1,023.7,000.0,032.1,026.1,028.3,0000.0,0021.27,0005.48,0003.79
2024-05-18 21:34:00,SystemResetWarning,0827.4,5.01,000.00,024.2,023.8,000.0,032.1,026.2,028.5,0000.0,0021.12,0005.52,0003.79
2024-05-18 21:35:00,SystemResetWarning,0827.4,4.99,000.00,024.2,023.2,000.0,032.2,025.8,028.0,0000.0,0022.24,0005.50,0003.80
2024-05-18 21:36:00,SystemResetWarning,0827.3,4.99,000.00,023.9,021.9,000.0,032.3,025.1,028.2,0000.0,0022.23,0005.50,0003.80
2024-05-18 21:37:00,SystemResetWarning,0827.3,5.02,000.00,023.8,022.0,000.0,032.3,025.1,028.4,0000.0,0021.76,0005.45,0003.80
2024-05-18 21:38:00,SystemResetWarning,0827.3,5.00,000.00,023.8,022.3,000.0,032.2,025.2,028.8,0000.0,0022.29,0005.47,0003.81
2024-05-18 21:39:00,SystemResetWarning,0827.2,4.99,000.00,023.9,022.6,000.0,032.2,025.5,028.5,0000.0,0022.86,0005.53,0003.82
2024-05-18 21:40:00,SystemResetWarning,0827.2,5.01,000.00,024.0,022.9,000.0,032.1,025.6,028.6,0000.0,0023.36,0005.60,0003.83
2024-05-18 21:41:00,SystemResetWarning,0827.2,5.02,000.00,024.0,023.2,000.0,032.1,025.8,028.1,0000.0,0023.40,0005.60,0003.84
2024-05-18 21:42:00,SystemResetWarning,0827.2,5.00,000.00,024.1,023.4,000.0,032.2,026.0,028.4,0000.0,0023.79,0005.60,0003.86
2024-05-18 21:43:00,SystemResetWarning,0827.2,5.00,000.00,024.2,023.6,000.0,032.2,026.1,028.2,0000.0,0023.30,0005.57,0003.85
2024-05-18 21:44:00,SystemResetWarning,0827.2,4.99,000.00,024.3,023.7,000.0,032.2,026.1,027.7,0000.0,0022.61,0005.56,0003.86
2024-05-18 21:45:00,SystemResetWarning,0827.1,4.98,000.00,024.1,022.4,000.0,032.3,025.3,028.1,0000.0,0022.55,0005.55,0003.85
2024-05-18 21:46:00,SystemResetWarning,0827.1,5.01,000.00,023.7,020.9,000.0,032.3,024.5,028.9,0000.0,0021.69,0005.55,0003.85
2024-05-18 21:47:00,SystemResetWarning,0827.2,5.01,000.00,023.6,021.0,000.0,032.3,024.5,029.2,0000.0,0021.92,0005.56,0003.85
2024-05-18 21:48:00,SystemResetWarning,0827.2,5.00,000.00,023.5,021.5,000.0,032.2,024.8,029.5,0000.0,0022.06,0005.57,0003.84
2024-05-18 21:49:00,SystemResetWarning,0827.1,5.00,000.00,023.6,021.9,000.0,032.1,025.0,029.0,0000.0,0021.39,0005.53,0003.84
2024-05-18 21:50:00,SystemResetWarning,0827.1,5.00,000.00,023.6,022.2,000.0,032.0,025.2,029.1,0000.0,0020.96,0005.51,0003.84
2024-05-18 21:51:00,SystemResetWarning,0827.1,5.00,000.00,023.7,022.6,000.0,032.0,025.4,028.9,0000.0,0020.63,0005.51,0003.85
2024-05-18 21:52:00,SystemResetWarning,0827.2,4.99,000.00,023.8,022.9,000.0,032.0,025.5,028.8,0000.0,0020.29,0005.46,0003.83
2024-05-18 21:53:00,SystemResetWarning,0827.2,5.00,000.00,023.9,023.1,000.0,032.0,025.7,028.9,0000.0,0018.74,0005.41,0003.82
2024-05-18 21:54:00,SystemResetWarning,0827.2,5.00,000.00,024.0,023.3,000.0,032.0,025.9,028.8,0000.0,0018.74,0005.42,0003.82
2024-05-18 21:55:00,SystemResetWarning,0827.2,5.00,000.00,024.0,023.5,000.0,032.0,026.0,028.6,0000.0,0018.69,0005.42,0003.82
2024-05-18 21:56:00,SystemResetWarning,0827.2,4.98,000.00,024.1,023.7,000.0,032.1,026.1,028.2,0000.0,0017.78,0005.39,0003.82
2024-05-18 21:57:00,SystemResetWarning,0827.2,5.00,000.00,024.2,023.6,000.0,032.1,026.0,028.0,0000.0,0017.69,0005.37,0003.82
2024-05-18 21:58:00,SystemResetWarning,0827.1,5.00,000.00,024.0,022.0,000.0,032.2,025.1,028.6,0000.0,0017.31,0005.36,0003.81
2024-05-18 21:59:00,SystemResetWarning,0827.1,5.00,000.00,023.6,020.8,000.0,032.2,024.5,029.2,0000.0,0017.89,0005.32,0003.79
